Time,TemperatureF,DewpointF,PressureIn,WindDirection,WindDirectionDegrees,WindSpeedMPH,WindSpeedGustMPH,Humidity,HourlyPrecipIn,Conditions,Clouds,dailyrainin,SolarRadiationWatts/m^2,SoftwareType,DateUTC
2013-11-17 00:10:00,35.0,33.0,30.43,ENE,74,0.0,-999.0,93,-99.99,,,0.00,0,weatherlink.com 1.10,2013-11-16 23:10:00,
2013-11-17 00:25:00,34.8,33.0,30.43,ENE,74,0.0,-999.0,93,-99.99,,,0.00,0,weatherlink.com 1.10,2013-11-16 23:25:00,
2013-11-17 00:40:00,34.6,33.0,30.43,ENE,74,0.0,-999.0,92,-99.99,,,0.00,0,weatherlink.com 1.10,2013-11-16 23:40:00,
2013-11-17 00:55:00,34.4,32.0,30.43,ENE,74,0.0,-999.0,92,-99.99,,,0.00,0,weatherlink.com 1.10,2013-11-16 23:55:00,
2013-11-17 01:10:00,34.1,32.0,30.42,ENE,74,0.0,-999.0,93,-99.99,,,0.00,0,weatherlink.com 1.10,2013-11-17 00:10:00,
2013-11-17 01:26:00,33.9,32.0,30.42,ENE,74,0.0,-999.0,92,-99.99,,,0.00,0,weatherlink.com 1.10,2013-11-17 00:26:00,
2013-11-17 01:41:00,33.6,32.0,30.43,ENE,74,0.0,-999.0,92,-99.99,,,0.00,0,weatherlink.com 1.10,2013-11-17 00:41:00,
2013-11-17 01:55:00,33.4,31.0,30.42,ENE,74,0.0,-999.0,92,-99.99,,,0.00,0,weatherlink.com 1.10,2013-11-17 00:55:00,
2013-11-17 02:11:00,33.2,31.0,30.42,ENE,74,0.0,-999.0,92,-99.99,,,0.00,0,weatherlink.com 1.10,2013-11-17 01:11:00,
2013-11-17 02:25:00,33.0,31.0,30.42,ENE,74,0.0,-999.0,92,-99.99,,,0.00,0,weatherlink.com 1.10,2013-11-17 01:25:00,
2013-11-17 02:40:00,33.0,31.0,30.42,ENE,74,0.0,-999.0,93,-99.99,,,0.00,0,weatherlink.com 1.10,2013-11-17 01:40:00,
2013-11-17 02:56:00,33.1,31.0,30.42,ENE,74,0.0,-999.0,93,-99.99,,,0.00,0,weatherlink.com 1.10,2013-11-17 01:56:00,
2013-11-17 03:11:00,33.2,31.0,30.41,ENE,74,0.0,-999.0,93,-99.99,,,0.00,0,weatherlink.com 1.10,2013-11-17 02:11:00,
2013-11-17 03:26:00,33.2,31.0,30.41,ENE,74,0.0,-999.0,93,-99.99,,,0.00,0,weatherlink.com 1.10,2013-11-17 02:26:00,
2013-11-17 03:41:00,33.3,32.0,30.41,ENE,74,0.0,-999.0,93,-99.99,,,0.00,0,weatherlink.com 1.10,2013-11-17 02:41:00,
2013-11-17 03:55:00,33.3,32.0,30.40,ENE,74,0.0,-999.0,93,-99.99,,,0.00,0,weatherlink.com 1.10,2013-11-17 02:55:00,
2013-11-17 04:11:00,33.5,32.0,30.40,ENE,74,0.0,-999.0,93,-99.99,,,0.00,0,weatherlink.com 1.10,2013-11-17 03:11:00,
2013-11-17 04:26:00,33.7,32.0,30.39,ENE,74,0.0,-999.0,93,-99.99,,,0.00,0,weatherlink.com 1.10,2013-11-17 03:26:00,
2013-11-17 04:41:00,33.8,34.0,30.40,ENE,74,0.0,-999.0,100,-99.99,,,0.00,0,weatherlink.com 1.10,2013-11-17 03:41:00,
2013-11-17 04:56:00,34.0,32.0,30.40,ENE,74,0.0,-999.0,93,-99.99,,,0.00,0,weatherlink.com 1.10,2013-11-17 03:56:00,
2013-11-17 05:10:00,34.1,32.0,30.39,ENE,74,0.0,-999.0,93,-99.99,,,0.00,0,weatherlink.com 1.10,2013-11-17 04:10:00,
2013-11-17 05:25:00,34.3,33.0,30.40,ENE,74,0.0,-999.0,93,-99.99,,,0.00,0,weatherlink.com 1.10,2013-11-17 04:25:00,
2013-11-17 05:41:00,34.3,33.0,30.39,ENE,74,0.0,-999.0,93,-99.99,,,0.00,0,weatherlink.com 1.10,2013-11-17 04:41:00,
2013-11-17 05:56:00,34.1,32.0,30.39,ENE,74,0.0,-999.0,93,-99.99,,,0.00,0,weatherlink.com 1.10,2013-11-17 04:56:00,
2013-11-17 06:10:00,33.9,32.0,30.40,ENE,74,0.0,-999.0,93,-99.99,,,0.00,0,weatherlink.com 1.10,2013-11-17 05:10:00,
2013-11-17 06:26:00,33.7,32.0,30.40,ENE,74,0.0,-999.0,93,-99.99,,,0.00,0,weatherlink.com 1.10,2013-11-17 05:26:00,
2013-11-17 06:41:00,33.4,32.0,30.40,ENE,74,0.0,-999.0,93,-99.99,,,0.00,0,weatherlink.com 1.10,2013-11-17 05:41:00,
2013-11-17 06:56:00,33.2,31.0,30.39,ENE,74,0.0,-999.0,93,-99.99,,,0.00,0,weatherlink.com 1.10,2013-11-17 05:56:00,
2013-11-17 07:11:00,33.0,31.0,30.40,ENE,74,0.0,-999.0,93,-99.99,,,0.01,0,weatherlink.com 1.10,2013-11-17 06:11:00,
2013-11-17 07:26:00,32.9,31.0,30.40,ENE,74,0.0,-999.0,93,-99.99,,,0.01,0,weatherlink.com 1.10,2013-11-17 06:26:00,
2013-11-17 07:41:00,32.7,31.0,30.40,ENE,74,0.0,-999.0,93,-99.99,,,0.01,5,weatherlink.com 1.10,2013-11-17 06:41:00,
2013-11-17 07:56:00,32.7,31.0,30.41,ENE,74,0.0,-999.0,93,-99.99,,,0.01,9,weatherlink.com 1.10,2013-11-17 06:56:00,
2013-11-17 08:10:00,32.7,31.0,30.41,ENE,74,0.0,-999.0,93,-99.99,,,0.01,14,weatherlink.com 1.10,2013-11-17 07:10:00,
2013-11-17 08:25:00,32.8,31.0,30.41,ENE,74,0.0,-999.0,93,-99.99,,,0.01,18,weatherlink.com 1.10,2013-11-17 07:25:00,
2013-11-17 08:41:00,33.0,32.0,30.41,ENE,74,0.0,-999.0,94,-99.99,,,0.01,26,weatherlink.com 1.10,2013-11-17 07:41:00,
2013-11-17 08:55:00,33.2,32.0,30.41,ENE,74,0.0,-999.0,94,-99.99,,,0.01,25,weatherlink.com 1.10,2013-11-17 07:55:00,
2013-11-17 09:12:00,33.5,32.0,30.42,ENE,74,0.0,-999.0,94,-99.99,,,0.01,25,weatherlink.com 1.10,2013-11-17 08:12:00,
2013-11-17 09:26:00,33.6,32.0,30.43,ENE,74,0.0,-999.0,94,-99.99,,,0.01,25,weatherlink.com 1.10,2013-11-17 08:26:00,
2013-11-17 09:41:00,33.8,32.0,30.43,ENE,74,0.0,-999.0,94,-99.99,,,0.01,32,weatherlink.com 1.10,2013-11-17 08:41:00,
2013-11-17 09:56:00,33.8,32.0,30.42,ENE,74,0.0,-999.0,94,-99.99,,,0.01,39,weatherlink.com 1.10,2013-11-17 08:56:00,
2013-11-17 10:11:00,33.9,32.0,30.42,ENE,74,0.0,-999.0,94,-99.99,,,0.01,44,weatherlink.com 1.10,2013-11-17 09:11:00,
2013-11-17 10:25:00,34.1,33.0,30.42,ENE,74,0.0,-999.0,94,-99.99,,,0.01,40,weatherlink.com 1.10,2013-11-17 09:25:00,
2013-11-17 10:41:00,34.4,33.0,30.42,ENE,74,0.0,-999.0,94,-99.99,,,0.01,40,weatherlink.com 1.10,2013-11-17 09:41:00,
2013-11-17 10:56:00,34.6,33.0,30.41,ENE,74,0.0,-999.0,94,-99.99,,,0.01,39,weatherlink.com 1.10,2013-11-17 09:56:00,
2013-11-17 11:11:00,34.9,33.0,30.40,ENE,74,0.0,-999.0,94,-99.99,,,0.01,30,weatherlink.com 1.10,2013-11-17 10:11:00,
2013-11-17 11:26:00,35.1,34.0,30.40,ENE,74,0.0,-999.0,94,-99.99,,,0.01,40,weatherlink.com 1.10,2013-11-17 10:26:00,
2013-11-17 11:41:00,35.3,34.0,30.39,ENE,74,0.0,-999.0,94,-99.99,,,0.01,37,weatherlink.com 1.10,2013-11-17 10:41:00,
2013-11-17 11:56:00,35.5,34.0,30.39,ENE,74,0.0,-999.0,94,-99.99,,,0.01,35,weatherlink.com 1.10,2013-11-17 10:56:00,
2013-11-17 12:11:00,35.6,34.0,30.39,ENE,74,0.0,-999.0,94,-99.99,,,0.01,40,weatherlink.com 1.10,2013-11-17 11:11:00,
2013-11-17 12:26:00,35.7,34.0,30.39,ENE,74,0.0,-999.0,94,-99.99,,,0.01,44,weatherlink.com 1.10,2013-11-17 11:26:00,
2013-11-17 12:40:00,35.8,34.0,30.38,ENE,74,0.0,-999.0,94,-99.99,,,0.01,51,weatherlink.com 1.10,2013-11-17 11:40:00,
2013-11-17 12:56:00,35.9,34.0,30.37,ENE,74,0.0,-999.0,94,-99.99,,,0.01,46,weatherlink.com 1.10,2013-11-17 11:56:00,
2013-11-17 13:10:00,36.0,35.0,30.36,ENE,74,0.0,-999.0,94,-99.99,,,0.01,44,weatherlink.com 1.10,2013-11-17 12:10:00,
2013-11-17 13:26:00,36.1,35.0,30.36,ENE,74,0.0,-999.0,94,-99.99,,,0.01,39,weatherlink.com 1.10,2013-11-17 12:26:00,
2013-11-17 13:41:00,36.1,35.0,30.36,ENE,74,0.0,-999.0,94,-99.99,,,0.01,35,weatherlink.com 1.10,2013-11-17 12:41:00,
2013-11-17 13:56:00,36.2,35.0,30.36,ENE,74,0.0,-999.0,94,-99.99,,,0.01,30,weatherlink.com 1.10,2013-11-17 12:56:00,
2013-11-17 14:11:00,36.3,35.0,30.35,ENE,65,0.0,-999.0,94,-99.99,,,0.01,26,weatherlink.com 1.10,2013-11-17 13:11:00,
2013-11-17 14:26:00,36.3,35.0,30.35,ENE,65,0.0,-999.0,94,-99.99,,,0.01,19,weatherlink.com 1.10,2013-11-17 13:26:00,
2013-11-17 14:41:00,36.3,35.0,30.35,East,87,0.0,-999.0,94,-99.99,,,0.01,16,weatherlink.com 1.10,2013-11-17 13:41:00,
2013-11-17 14:56:00,36.3,35.0,30.35,East,87,0.0,-999.0,94,-99.99,,,0.01,16,weatherlink.com 1.10,2013-11-17 13:56:00,
2013-11-17 15:11:00,36.2,35.0,30.35,East,87,0.0,-999.0,94,-99.99,,,0.01,14,weatherlink.com 1.10,2013-11-17 14:11:00,
2013-11-17 15:26:00,36.2,35.0,30.34,East,87,0.0,-999.0,94,-99.99,,,0.01,9,weatherlink.com 1.10,2013-11-17 14:26:00,
2013-11-17 15:41:00,36.2,35.0,30.34,East,87,0.0,-999.0,94,-99.99,,,0.01,5,weatherlink.com 1.10,2013-11-17 14:41:00,
2013-11-17 15:55:00,36.3,35.0,30.34,East,87,0.0,-999.0,94,-99.99,,,0.01,5,weatherlink.com 1.10,2013-11-17 14:55:00,
2013-11-17 16:11:00,36.3,35.0,30.34,NNE,27,0.0,-999.0,94,-99.99,,,0.01,0,weatherlink.com 1.10,2013-11-17 15:11:00,
2013-11-17 16:26:00,36.4,35.0,30.34,NNE,27,0.0,-999.0,94,-99.99,,,0.01,0,weatherlink.com 1.10,2013-11-17 15:26:00,
2013-11-17 16:41:00,36.4,35.0,30.33,NNE,27,0.0,-999.0,94,-99.99,,,0.01,0,weatherlink.com 1.10,2013-11-17 15:41:00,
2013-11-17 16:56:00,36.5,37.0,30.33,NNE,27,0.0,-999.0,100,-99.99,,,0.01,0,weatherlink.com 1.10,2013-11-17 15:56:00,
2013-11-17 17:10:00,36.6,35.0,30.33,NNE,27,0.0,-999.0,95,-99.99,,,0.01,0,weatherlink.com 1.10,2013-11-17 16:10:00,
2013-11-17 17:25:00,36.7,35.0,30.33,NNE,27,0.0,-999.0,95,-99.99,,,0.01,0,weatherlink.com 1.10,2013-11-17 16:25:00,
2013-11-17 17:41:00,36.8,36.0,30.32,NNE,27,0.0,-999.0,95,-99.99,,,0.01,0,weatherlink.com 1.10,2013-11-17 16:41:00,
2013-11-17 17:56:00,36.9,35.0,30.32,NNE,29,0.0,-999.0,94,-99.99,,,0.01,0,weatherlink.com 1.10,2013-11-17 16:56:00,
2013-11-17 18:11:00,36.9,35.0,30.32,NNE,29,0.0,-999.0,94,-99.99,,,0.01,0,weatherlink.com 1.10,2013-11-17 17:11:00,
2013-11-17 18:26:00,37.0,36.0,30.32,NNE,29,0.0,-999.0,94,-99.99,,,0.01,0,weatherlink.com 1.10,2013-11-17 17:26:00,
2013-11-17 18:40:00,37.0,36.0,30.31,NNE,32,0.0,-999.0,94,-99.99,,,0.01,0,weatherlink.com 1.10,2013-11-17 17:40:00,
2013-11-17 18:55:00,37.0,36.0,30.31,NNE,32,0.0,-999.0,94,-99.99,,,0.01,0,weatherlink.com 1.10,2013-11-17 17:55:00,
2013-11-17 19:10:00,37.0,36.0,30.31,NE,46,0.0,-999.0,94,-99.99,,,0.01,0,weatherlink.com 1.10,2013-11-17 18:10:00,
2013-11-17 19:26:00,37.0,36.0,30.31,NE,46,0.0,-999.0,94,-99.99,,,0.01,0,weatherlink.com 1.10,2013-11-17 18:26:00,
2013-11-17 19:41:00,36.9,35.0,30.31,NE,40,0.0,-999.0,94,-99.99,,,0.01,0,weatherlink.com 1.10,2013-11-17 18:41:00,
2013-11-17 19:56:00,36.8,36.0,30.30,NE,40,0.0,-999.0,95,-99.99,,,0.01,0,weatherlink.com 1.10,2013-11-17 18:56:00,
2013-11-17 20:11:00,36.7,35.0,30.30,NE,40,0.0,-999.0,95,-99.99,,,0.01,0,weatherlink.com 1.10,2013-11-17 19:11:00,
2013-11-17 20:26:00,36.7,35.0,30.30,NE,40,0.0,-999.0,95,-99.99,,,0.01,0,weatherlink.com 1.10,2013-11-17 19:26:00,
2013-11-17 20:40:00,36.7,35.0,30.30,NE,40,0.0,-999.0,95,-99.99,,,0.01,0,weatherlink.com 1.10,2013-11-17 19:40:00,
2013-11-17 20:55:00,36.7,35.0,30.29,NE,40,0.0,-999.0,95,-99.99,,,0.01,0,weatherlink.com 1.10,2013-11-17 19:55:00,
2013-11-17 21:10:00,36.8,36.0,30.29,NE,40,0.0,-999.0,95,-99.99,,,0.01,0,weatherlink.com 1.10,2013-11-17 20:10:00,
2013-11-17 21:26:00,36.8,36.0,30.29,NE,40,0.0,-999.0,95,-99.99,,,0.01,0,weatherlink.com 1.10,2013-11-17 20:26:00,
2013-11-17 21:41:00,36.9,36.0,30.27,NE,40,0.0,-999.0,95,-99.99,,,0.01,0,weatherlink.com 1.10,2013-11-17 20:41:00,
2013-11-17 21:55:00,36.9,36.0,30.27,NE,40,0.0,-999.0,95,-99.99,,,0.01,0,weatherlink.com 1.10,2013-11-17 20:55:00,
2013-11-17 22:11:00,37.0,36.0,30.27,ENE,58,0.0,-999.0,95,-99.99,,,0.01,0,weatherlink.com 1.10,2013-11-17 21:11:00,
2013-11-17 22:26:00,37.1,36.0,30.27,ENE,58,0.0,-999.0,95,-99.99,,,0.01,0,weatherlink.com 1.10,2013-11-17 21:26:00,
2013-11-17 22:41:00,37.1,36.0,30.26,NE,54,0.0,-999.0,95,-99.99,,,0.01,0,weatherlink.com 1.10,2013-11-17 21:41:00,
2013-11-17 22:56:00,37.2,36.0,30.26,NE,54,0.0,-999.0,95,-99.99,,,0.01,0,weatherlink.com 1.10,2013-11-17 21:56:00,
2013-11-17 23:11:00,37.3,36.0,30.26,NE,54,0.0,-999.0,95,-99.99,,,0.01,0,weatherlink.com 1.10,2013-11-17 22:11:00,
2013-11-17 23:26:00,37.4,36.0,30.25,NE,54,0.0,-999.0,95,-99.99,,,0.01,0,weatherlink.com 1.10,2013-11-17 22:26:00,
2013-11-17 23:40:00,37.5,36.0,30.24,NE,54,0.0,-999.0,95,-99.99,,,0.01,0,weatherlink.com 1.10,2013-11-17 22:40:00,
2013-11-17 23:55:00,37.6,36.0,30.24,NE,54,0.0,-999.0,95,-99.99,,,0.01,0,weatherlink.com 1.10,2013-11-17 22:55:00,